CORVUS BC1

Last updated on Mon Sep 21 2026 00:03:44 GMT+0000 (Coordinated Universal Time)

1 42847U 17042Y 26263.42367198 .00001546 00000+0 10725-3 0 9991 2 42847 97.4210 62.0491 0013183 118.4992 241.7566 15.06942188501430
UTC large
Height (km)
Speed (km/s)
/
Latitude / Longitude
Inclination (degrees)
Orbital Period (minutes)
Azimuth
Elevation
Range (km)
Doppler Factor

Next 0 passes for location: London (51.5072 / 0.1276)

No passes found over London.
CORVUS BC1